Location: Warszawa
(52.2500°N, 21.0000°E)
Time: 14:40:46
(UTC+02:00)

Vanguard 2 - Pass Details

Date: 11 February 2023
Orbit: 553 x 2927 km, 32.9° (Epoch: 27 March)

Event Time Altitude Azimuth Distance (km) Brightness Sun altitude
Rises 17:48:44 0° 192° (SSW) 4,144 11.6 -10.8°
Reaches altitude 10° 17:53:11 10° 167° (SSE) 3,646 10.9 -11.4°
Maximum altitude 17:57:33 14° 140° (SE) 3,771 10.7 -12.1°
Drops below altitude 10° 18:02:47 10° 114° (ESE) 4,560 10.9 -12.9°
Enters shadow 18:03:32 - 111° (ESE) 4,709 11.0 -13.0°
Sets 18:09:50 0° 94° (E) 6,103 - -14.0°
